Dunkirk, NY

1:29 PM EST on February 27, 2017 (GMT -0500)
Chautauqua County-Dunkirk

Weather History for KDKK - February, 2013

Change the Weather History Date:

Friday, February 22, 2013

  Actual Average Record
Temperature  
Mean Temperature 28 °F -  
Max Temperature 37 °F 43 °F 67 °F (1930)
Min Temperature 18 °F 24 °F -6 °F (1936)
Degree Days  
Heating Degree Days 38    
Moisture  
Dew Point 22 °F    
Average Humidity 74    
Maximum Humidity 87    
Minimum Humidity 48    
Precipitation  
Precipitation 0.03 in - - ()
Sea Level Pressure  
Sea Level Pressure 30.13 in    
Wind  
Wind Speed 8 mph (SE)    
Max Wind Speed 23 mph    
Max Gust Speed 30 mph    
Visibility 9 miles    
Events Snow    
Averages and records for this station are not official NWS values.
T = Trace of Precipitation, MM = Missing Value Source: NWS Daily Summary

Daily Weather History Graph

Daily Weather History Graph

Search for Another Location

Airport or City:

Trip Planner

Search our weather history database for the weather conditions in past years. The results will help you decide how hot, cold, wet, or windy it might be!

Date:

Astronomy

Feb. 22, 2013 Rise Set
Actual Time 7:03 AM EST 5:58 PM EST
Civil Twilight 6:34 AM EST 6:26 PM EST
Nautical Twilight 6:02 AM EST 6:59 PM EST
Astronomical Twilight 5:29 AM EST 7:32 PM EST
Moon 3:05 PM EST (2/22) 4:49 AM EST (2/22)
Length of Visible Light 11h 52m
Length of Day
10h 55m
Waxing Gibbous, 90% of the Moon is Illuminated
Feb 22
Waxing Gibbous
Feb 25
Full
Mar 4
Last Quarter
Mar 11
New
Mar 19
First Quarter

Hourly Weather History & Observations

Time (EST) Temp. Windchill Dew Point Humidity Pressure Visibility Wind Dir Wind Speed Gust Speed Precip Events Conditions
12:53 AM 19.9 °F 12.1 °F 14.0 °F 78% 30.39 in 10.0 mi East 5.8 mph - N/A   Overcast
1:16 AM 19.4 °F 11.5 °F 14.0 °F 80% 30.34 in 10.0 mi East 5.8 mph - N/A   Overcast
1:53 AM 19.9 °F 11.1 °F 14.0 °F 78% 30.38 in 10.0 mi East 6.9 mph - N/A   Overcast
2:10 AM 19.4 °F 8.6 °F 12.2 °F 74% 30.35 in 10.0 mi East 9.2 mph - N/A   Scattered Clouds
2:53 AM 19.0 °F 8.2 °F 12.0 °F 74% 30.35 in 10.0 mi East 9.2 mph - N/A   Clear
3:53 AM 19.0 °F 9.0 °F 12.9 °F 77% 30.32 in 10.0 mi ENE 8.1 mph - N/A   Clear
4:53 AM 18.0 °F 11.1 °F 12.9 °F 81% 30.33 in 10.0 mi NE 4.6 mph - N/A   Clear
5:53 AM 19.9 °F 9.3 °F 14.0 °F 78% 30.30 in 10.0 mi NE 9.2 mph - N/A   Clear
6:53 AM 23.0 °F 13.9 °F 15.1 °F 72% 30.26 in 10.0 mi East 8.1 mph - N/A   Clear
7:53 AM 26.1 °F 16.8 °F 16.0 °F 66% 30.24 in 10.0 mi East 9.2 mph - N/A   Mostly Cloudy
8:53 AM 28.0 °F 18.6 °F 17.1 °F 63% 30.23 in 10.0 mi East 10.4 mph 20.7 mph N/A   Clear
9:53 AM 30.0 °F 20.0 °F 18.0 °F 61% 30.17 in 10.0 mi ESE 12.7 mph - N/A   Mostly Cloudy
10:53 AM 33.1 °F 23.9 °F 18.0 °F 54% 30.11 in 10.0 mi ESE 12.7 mph - N/A   Overcast
11:53 AM 35.1 °F 28.6 °F 17.1 °F 48% 30.10 in 10.0 mi SE 8.1 mph - N/A   Overcast
1:26 PM 33.8 °F 27.0 °F 24.8 °F 70% 30.04 in 1.8 mi SSE 8.1 mph 21.9 mph 0.01 in Snow Light Snow
1:37 PM 33.8 °F 29.6 °F 26.6 °F 75% 30.03 in 2.0 mi East 4.6 mph - 0.01 in Snow Light Snow
1:53 PM 33.1 °F - 27.0 °F 78% 30.06 in 1.2 mi Calm Calm - 0.02 in Snow Light Snow
2:15 PM 32.0 °F - 28.4 °F 87% 30.03 in 3.0 mi Calm Calm - 0.01 in Snow Light Snow
2:53 PM 33.1 °F - 28.0 °F 82% 30.03 in 10.0 mi Calm Calm - 0.01 in   Overcast
3:05 PM 33.8 °F - 28.4 °F 81% 29.99 in 8.0 mi Calm Calm - 0.00 in Snow Light Snow
3:53 PM 35.1 °F 28.6 °F 27.0 °F 72% 30.01 in 10.0 mi South 8.1 mph - 0.00 in   Overcast
4:53 PM 36.0 °F 32.1 °F 28.0 °F 73% 30.01 in 10.0 mi Variable 4.6 mph - N/A   Overcast
5:53 PM 36.0 °F 29.0 °F 28.9 °F 76% 30.00 in 10.0 mi SW 9.2 mph - N/A   Overcast
6:35 PM 35.6 °F 27.5 °F 28.4 °F 75% 29.97 in 10.0 mi SSW 11.5 mph - N/A   Overcast
6:53 PM 36.0 °F 24.4 °F 28.9 °F 76% 29.99 in 10.0 mi South 23.0 mph 29.9 mph N/A   Overcast
7:53 PM 37.0 °F 28.1 °F 30.0 °F 76% 29.99 in 10.0 mi South 15.0 mph 24.2 mph N/A   Overcast
8:53 PM 37.0 °F 27.4 °F 30.0 °F 76% 29.99 in 10.0 mi South 17.3 mph 26.5 mph N/A   Scattered Clouds
9:53 PM 36.0 °F 26.7 °F 30.0 °F 79% 30.00 in 10.0 mi South 15.0 mph 21.9 mph N/A   Mostly Cloudy
10:53 PM 36.0 °F 27.5 °F 28.9 °F 76% 29.98 in 10.0 mi South 12.7 mph 17.3 mph N/A   Mostly Cloudy
11:53 PM 36.0 °F 27.5 °F 28.9 °F 76% 29.98 in 10.0 mi South 12.7 mph - N/A   Overcast